Hourly Data Report for September 27, 2017

All times are specified in Local Standard Time (LST). Add 1 hour to adjust for Daylight Saving Time where and when it is observed.

BATHURST A
NEW BRUNSWICK

47°37'47.000" N
65°44'20.000" W
58.80 m
8100505
71574
ZBF

Download Data

Hourly Data (September 2017)
Hourly Data Report for September 27, 2017
Temp Definition
°C
Dew Point Temp Definition
°C
Rel Hum Definition
%
Wind Dir Definition
10's deg

Wind Spd Definition
km/h
Visibility Definition
km
Stn Press Definition
kPa
Hmdx Definition


Wind Chill Definition


Weather Definition


TIME
00:00 Legend Double Dagger 12.0 7.0 71 9 5 24.1 101.21     LegendNANA
01:00 Legend Double Dagger 11.5 7.8 78 36 2 24.1 101.19     LegendNANA
02:00 Legend Double Dagger 11.7 8.0 78 5 3 24.1 101.19     Cloudy
03:00 Legend Double Dagger 11.9 8.6 80 10 7 24.1 101.10     LegendNANA
04:00 Legend Double Dagger 11.8 8.9 82 10 7 24.1 101.04     LegendNANA
05:00 Legend Double Dagger 11.0 9.3 90 8 7 16.1 100.99     Rain Showers
06:00 Legend Double Dagger 11.0 9.9 93 9 7 16.1 100.92     LegendNANA
07:00 Legend Double Dagger 11.0 9.9 93 8 7 16.1 100.87     LegendNANA
08:00 Legend Double Dagger 11.2 10.2 93 11 6 3.6 100.80     Drizzle,Fog
09:00 Legend Double Dagger 11.2 10.6 96 10 4 2.0 100.76     Drizzle,Fog
10:00 Legend Double Dagger 11.9 11.5 97 11 5 2.4 100.66     Drizzle,Fog
11:00 Legend Double Dagger 13.1 12.5 96 4 9 2.0 100.65     Drizzle,Fog
12:00 Legend Double Dagger 13.5 13.1 97 11 11 2.4 100.45     Drizzle,Fog
13:00 Legend Double Dagger 13.7 13.0 95 12 12 6.4 100.37     Drizzle,Fog
14:00 Legend Double Dagger 14.2 13.5 96 13 6 6.4 100.27     Drizzle,Fog
15:00 Legend Double Dagger 14.2 13.5 96 12 10 4.8 100.17     Drizzle,Fog
16:00 Legend Double Dagger 14.2 13.8 97 12 7 2.0 100.06     Drizzle,Fog
17:00 Legend Double Dagger 14.3 14.0 98 9 8 3.2 99.94     Fog
18:00 Legend Double Dagger 14.2 14.0 99 9 7 2.0 99.88     Drizzle,Fog
19:00 Legend Double Dagger 14.4 14.2 99 3 3 2.0 99.81     Rain Showers,Fog
20:00 Legend Double Dagger 14.1 14.0 99 9 5 1.2 99.65     Fog
21:00 Legend Double Dagger 14.2 14.1 99 32 28 0.4 99.66     Fog
22:00 Legend Double Dagger 13.5 13.1 98 24 12 16.1 99.77     Thunderstorms,Moderate Rain Showers
23:00 Legend Double Dagger 13.4 13.2 98 16 7 12.9 99.71     Moderate Rain

Notes on Data Quality.

Legend

  • E = Estimated
  • M = Missing
  • NA = Not Available
  • ‡ = Partner data that is not subject to review by the National Climate Archives
Date modified: